This demonstration page uses our WeatherBlox Daily Observations layout. Learn more.

Left ArrowRight Arrow

36.19886, -115.1175

Hourly Observations for October 10, 2020

Temp ( °F °C ) Dew Point ( °F °C ) Humidity (%) Winds ( mph kmh ) Pressure ( in mb ) Visibility ( mi km ) Precip ( " mm )
12:53 am 00:53 Clear 69 20.6 28 -2.2 22 22 NW 6 9 29.80 1009 10 16 0.00 0.00
1:53 am 01:53 Clear 67 19.4 27 -2.8 22 22 NNW 7 11 29.80 1009 10 16 0.00 0.00
2:53 am 02:53 Clear 67 19.4 27 -2.8 22 22 NW 9 15 29.80 1009 10 16 0.00 0.00
3:53 am 03:53 Clear 65 18.3 27 -2.8 24 24 WNW 6 9 29.80 1009 10 16 0.00 0.00
4:53 am 04:53 Clear 65 18.3 28 -2.2 25 25 WNW 5 7 29.81 1010 10 16 0.00 0.00
5:53 am 05:53 Clear 63 17.2 27 -2.8 26 26 NW 6 9 29.82 1010 10 16 0.00 0.00
6:53 am 06:53 Sunny 62 16.7 28 -2.2 28 28 NW 5 7 29.84 1011 10 16 0.00 0.00
7:53 am 07:53 Sunny 65 18.3 30 -1.1 27 27 NNW 3 6 29.86 1011 10 16 0.00 0.00
8:53 am 08:53 Sunny 68 20 31 -0.6 25 25 NW 5 7 29.87 1012 10 16 0.00 0.00
9:53 am 09:53 Sunny 75 23.9 29 -1.7 18 18 SE 3 6 29.88 1012 10 16 0.00 0.00
10:53 am 10:53 Sunny 79 26.1 29 -1.7 16 16 SSE 5 7 29.88 1012 10 16 0.00 0.00
11:53 am 11:53 Sunny 82 27.8 31 -0.6 16 16 SSE 6 9 29.86 1011 10 16 0.00 0.00
12:53 pm 12:53 Sunny 86 30 31 -0.6 14 14 E 9 15 29.82 1010 10 16 0.00 0.00
1:53 pm 13:53 Sunny 88 31.1 30 -1.1 12 12 E 12 19 29.78 1009 10 16 0.00 0.00
2:53 pm 14:53 Sunny 90 32.2 26 -3.3 10 10 SSE 14 22 29.76 1008 10 16 0.00 0.00
3:53 pm 15:53 Sunny 90 32.2 28 -2.2 11 11 S 16 26 29.76 1008 10 16 0.00 0.00
4:53 pm 16:53 Sunny 90 32.2 30 -1.1 12 12 S 16 26 29.74 1007 10 16 0.00 0.00
5:53 pm 17:53 Sunny 87 30.6 29 -1.7 12 12 SSW 15 24 29.75 1008 10 16 0.00 0.00
6:53 pm 18:53 Clear 85 29.4 32 0 15 15 SSW 9 15 29.76 1008 10 16 0.00 0.00
7:53 pm 19:53 Clear 83 28.3 34 1.1 17 17 SSW 12 19 29.78 1008 10 16 0.00 0.00
8:53 pm 20:53 Clear 81 27.2 35 1.7 19 19 SSW 8 13 29.78 1008 10 16 0.00 0.00
9:53 pm 21:53 Clear 80 26.7 34 1.1 19 19 SSW 10 17 29.78 1008 10 16 0.00 0.00
10:53 pm 22:53 Clear 79 26.1 36 2.2 21 21 SSW 12 19 29.78 1009 10 16 0.00 0.00
11:53 pm 23:53 Clear 78 25.6 37 2.8 23 23 S 14 22 29.78 1009 10 16 0.00 0.00

Powered by AerisWeather